Waarnemingen

Advertentie
Mijn weer
San Sebastian/Fuenterrabia, Spanje (8029): temperatuur & dauwpunt: 19.04.2018 14:00:00 - 25.04.2018 14:00:00 (CEST)San Sebastian/Fuenterrabia, Spanje (8029): windsnelheid: 19.04.2018 14:00:00 - 25.04.2018 14:00:00 (CEST)San Sebastian/Fuenterrabia, Spanje (8029): windrichting: 19.04.2018 14:00:00 - 25.04.2018 14:00:00 (CEST)San Sebastian/Fuenterrabia, Spanje (8029): luchtdruk: 19.04.2018 14:00:00 - 25.04.2018 14:00:00 (CEST)San Sebastian/Fuenterrabia, Spanje (8029): zicht: 19.04.2018 14:00:00 - 25.04.2018 14:00:00 (CEST)
Datum & Tijd tt [°C] td [°C] ff [km/u] ff [kn] dd ppp [hPa] vv [km]
25.04.2018 14:00:00 15,6 12,4 8 4 N 1023,7 15
25.04.2018 13:00:00 15,0 13,0 5 3 NNO - 8
25.04.2018 12:00:00 14,0 14,0 8 4 N - 4,0
25.04.2018 11:00:00 14,7 13,7 9 5 NW 1023,5 5
25.04.2018 10:00:00 15,0 14,0 4 2 - - 6
25.04.2018 09:00:00 15,0 14,0 2 1 - - 4,5
25.04.2018 08:00:00 14,9 14,3 4 2 N 1021,7 2,7
25.04.2018 07:00:00 15,0 14,0 5 3 WNW - 4,0
25.04.2018 06:00:00 15,0 14,0 4 2 - - 2,2
25.04.2018 05:00:00 15,0 14,0 5 3 NNW - 2,3
25.04.2018 04:00:00 15,0 14,0 4 2 - - 3,9
25.04.2018 03:00:00 15,0 14,0 5 3 W - 8
25.04.2018 02:00:00 16,0 14,0 2 1 - - 10
25.04.2018 01:00:00 16,0 14,0 5 3 W - 10
25.04.2018 00:00:00 16,0 14,0 8 4 WZW - 8
24.04.2018 23:00:00 17,0 15,0 9 5 ZW - 10
24.04.2018 22:00:00 17,0 15,0 8 4 - - 10
24.04.2018 21:00:00 18,0 15,0 13 7 WNW - 10
24.04.2018 20:00:00 19,2 15,1 8 4 WNW 1017,5 10
24.04.2018 19:00:00 19,0 15,0 8 4 N - 10
24.04.2018 18:00:00 19,0 16,0 11 6 NNO - 10
24.04.2018 17:00:00 19,5 14,7 13 7 NO 1017,3 15
24.04.2018 16:00:00 20,0 16,0 11 6 NNO - 10
24.04.2018 15:00:00 20,0 16,0 9 5 NO - 10
24.04.2018 14:00:00 18,7 14,6 11 6 NO 1019,3 10
24.04.2018 13:00:00 18,0 15,0 11 6 NNO - 10
24.04.2018 12:00:00 17,0 15,0 8 4 N - 10
24.04.2018 11:00:00 17,0 13,9 8 4 NNO 1020,4 10
24.04.2018 10:00:00 16,0 14,0 5 3 N - 10
24.04.2018 09:00:00 16,0 14,0 0 0 N - 10
24.04.2018 08:00:00 14,9 13,8 2 1 - 1020,7 9
24.04.2018 07:00:00 15,0 14,0 0 0 N - 9
24.04.2018 06:00:00 15,0 14,0 0 0 N - 10
24.04.2018 05:00:00 15,0 14,0 2 1 NNO - 8
24.04.2018 04:00:00 15,0 14,0 2 1 ONO - 8
24.04.2018 03:00:00 16,0 14,0 4 2 - - 8
24.04.2018 02:00:00 16,0 14,0 0 0 N - 7
24.04.2018 01:00:00 16,0 14,0 2 1 - - 9
24.04.2018 00:00:00 16,0 14,0 0 0 N - 9
23.04.2018 23:00:00 16,0 14,0 5 3 NNO - 10
23.04.2018 22:00:00 16,0 14,0 2 1 - - 10
23.04.2018 21:00:00 16,0 14,0 5 3 N - 10
23.04.2018 20:00:00 16,2 13,3 5 3 NW 1021,3 12
23.04.2018 19:00:00 16,0 13,0 5 3 N - 10
23.04.2018 18:00:00 16,0 13,0 9 5 NNO - 10
23.04.2018 17:00:00 17,0 13,5 11 6 N 1021,2 12
23.04.2018 16:00:00 17,0 14,0 9 5 NNO - 10
23.04.2018 15:00:00 17,0 14,0 8 4 NNO - 10
23.04.2018 14:00:00 16,4 14,2 8 4 NNO 1022,2 9
23.04.2018 13:00:00 16,0 14,0 8 4 NNO - 9
23.04.2018 12:00:00 15,0 14,0 5 3 N - 8
23.04.2018 11:00:00 15,0 14,0 2 1 NO 1022,6 5
23.04.2018 10:00:00 15,0 14,0 2 1 - - 3,0
23.04.2018 09:00:00 15,0 14,0 5 3 NNO - 6
23.04.2018 08:00:00 15,4 14,3 4 2 N 1020,7 5
23.04.2018 07:00:00 15,0 14,0 2 1 O - 5
23.04.2018 06:00:00 15,0 14,0 0 0 N - 5
23.04.2018 05:00:00 14,0 14,0 0 0 N - 5
23.04.2018 04:00:00 14,0 14,0 2 1 - - 4,0
23.04.2018 03:00:00 14,0 14,0 2 1 - - 6
23.04.2018 02:00:00 15,0 14,0 2 1 WNW - 7
23.04.2018 01:00:00 16,0 15,0 2 1 ZZW - 7
23.04.2018 00:00:00 16,0 15,0 2 1 - - 8
22.04.2018 23:00:00 16,0 14,0 4 2 - - 8
22.04.2018 22:00:00 17,0 14,0 9 5 W - 10
22.04.2018 21:00:00 17,0 14,0 13 7 W - 10
22.04.2018 20:00:00 18,2 13,3 8 4 N 1015,9 15
22.04.2018 19:00:00 18,0 13,0 8 4 N - 10
22.04.2018 18:00:00 20,0 13,0 5 3 NNO - 10
22.04.2018 17:00:00 18,8 11,9 9 5 NO 1016,2 15
22.04.2018 16:00:00 19,0 13,0 15 8 NO - 10
22.04.2018 15:00:00 20,0 12,0 11 6 NNW - 10
22.04.2018 14:00:00 20,9 11,3 13 7 NW 1017,0 15
22.04.2018 13:00:00 20,0 11,0 21 11 WNW - 10
22.04.2018 12:00:00 21,0 11,0 11 6 NW - 10
22.04.2018 11:00:00 20,7 10,2 8 4 ZZW 1017,1 15
22.04.2018 10:00:00 19,0 12,0 9 5 ZZW - 10
22.04.2018 09:00:00 20,0 11,0 8 4 Z - 10
22.04.2018 08:00:00 18,6 9,4 2 1 - 1015,7 10
22.04.2018 07:00:00 20,0 8,0 11 6 ZZW - 10
22.04.2018 06:00:00 21,0 9,0 8 4 ZZW - 10
22.04.2018 05:00:00 21,0 9,0 11 6 Z - 10
22.04.2018 04:00:00 20,0 10,0 9 5 Z - 10
22.04.2018 03:00:00 23,0 9,0 11 6 ZW - 10
22.04.2018 02:00:00 21,0 10,0 8 4 ZZW - 10
22.04.2018 01:00:00 20,0 10,0 5 3 ZZW - 10
22.04.2018 00:00:00 19,0 10,0 4 2 - - 10
21.04.2018 23:00:00 18,0 10,0 8 4 Z - 10
21.04.2018 22:00:00 19,0 12,0 5 3 ZZW - 9
21.04.2018 21:00:00 21,0 11,0 2 1 - - 10
21.04.2018 20:00:00 25,4 6,1 11 6 ZZW 1015,0 25
21.04.2018 19:00:00 25,0 9,0 9 5 ZZO - 10
21.04.2018 18:00:00 26,0 7,0 16 9 Z - 10
21.04.2018 17:00:00 27,8 4,2 24 13 Z 1015,2 30
21.04.2018 16:00:00 27,0 8,0 22 12 ZZO - 10
21.04.2018 15:00:00 27,0 9,0 22 12 ZZO - 10
21.04.2018 14:00:00 26,5 6,0 21 11 ZO 1016,8 20
21.04.2018 13:00:00 26,0 9,0 15 8 ZZO - 10
21.04.2018 12:00:00 25,0 9,0 21 11 ZZO - 10
21.04.2018 11:00:00 23,8 6,1 15 8 ZO 1018,0 10
21.04.2018 10:00:00 22,0 9,0 9 5 O - 10
21.04.2018 09:00:00 20,0 9,0 11 6 ONO - 10
21.04.2018 08:00:00 18,3 7,4 8 4 N 1018,0 10
21.04.2018 07:00:00 19,0 7,0 8 4 WZW - 10
21.04.2018 06:00:00 19,0 7,0 15 8 ZZW - 10
21.04.2018 05:00:00 18,0 8,0 15 8 ZZW - 10
21.04.2018 04:00:00 18,0 9,0 9 5 Z - 10
21.04.2018 03:00:00 17,0 10,0 8 4 ZW - 10
21.04.2018 02:00:00 15,0 12,0 4 2 - - 10
21.04.2018 01:00:00 17,0 13,0 8 4 ZZW - 10
21.04.2018 00:00:00 17,0 13,0 4 2 - - 10
20.04.2018 23:00:00 18,0 13,0 5 3 Z - 10
20.04.2018 22:00:00 21,0 13,0 2 1 - - 10
20.04.2018 21:00:00 20,0 12,0 5 3 N - 10
20.04.2018 20:00:00 23,4 10,8 8 4 N 1019,0 18
20.04.2018 19:00:00 23,0 11,0 5 3 N - 10
20.04.2018 18:00:00 22,0 11,0 8 4 N - 10
20.04.2018 17:00:00 21,8 11,8 9 5 N 1019,5 18
20.04.2018 16:00:00 21,0 13,0 9 5 NNO - 10
20.04.2018 15:00:00 22,0 14,0 11 6 NO - 10
20.04.2018 14:00:00 21,4 12,5 13 7 NNO 1020,7 18
20.04.2018 13:00:00 21,0 13,0 13 7 NNO - 10
20.04.2018 12:00:00 21,0 14,0 11 6 NO - 10
20.04.2018 11:00:00 21,8 10,9 8 4 NNO 1021,4 18
20.04.2018 10:00:00 20,0 12,0 4 2 - - 10
20.04.2018 09:00:00 18,0 13,0 2 1 - - 10
20.04.2018 08:00:00 17,2 10,8 9 5 N 1020,8 20
20.04.2018 07:00:00 18,0 11,0 8 4 N - 10
20.04.2018 06:00:00 21,0 10,0 11 6 ZW - 10
20.04.2018 05:00:00 21,0 10,0 8 4 WZW - 10
20.04.2018 04:00:00 21,0 9,0 5 3 WZW - 10
20.04.2018 03:00:00 20,0 11,0 4 2 - - 10
20.04.2018 02:00:00 18,0 12,0 4 2 - - 10
20.04.2018 01:00:00 17,0 12,0 2 1 - - 10
20.04.2018 00:00:00 17,0 12,0 4 2 - - 10
19.04.2018 23:00:00 18,0 12,0 5 3 ZZW - 10
19.04.2018 22:00:00 18,0 13,0 2 1 - - 10
19.04.2018 21:00:00 22,0 12,0 2 1 - - 10
19.04.2018 20:00:00 23,4 10,5 8 4 N 1020,2 30
19.04.2018 19:00:00 23,0 11,0 8 4 N - 10
19.04.2018 18:00:00 21,0 12,0 11 6 N - 10
19.04.2018 17:00:00 23,6 11,0 9 5 N 1020,1 30
19.04.2018 16:00:00 22,0 11,0 9 5 N - 10
19.04.2018 15:00:00 22,0 13,0 15 8 NNO - 10
19.04.2018 14:00:00 21,3 11,1 16 9 NO 1021,4 10

tt = temperatuur
td = dauwpunt
ff = windsnelheid
dd = windrichting
ppp = luchtdruk
vv = zicht

Weerstations in de omgeving